FW9607 Weather Reports


Display with metric or nautical units.
time (UTC)temp
F
wind
direction
speed
MPH
gust
MPH
rain 1hr
in
rain 24hr
in
rain mn
in
humidity
%
barometer
mb
20260904112257 82 158 3.0 4.0 0.00 0.00 0.00 89 1010.4
20260904111756 82 159 3.0 4.0 0.00 0.00 0.00 89 1010.4
20260904111257 82 152 3.0 5.0 0.00 0.00 0.00 89 1010.5
20260904110240 81 145 3.0 4.0 0.00 0.00 0.00 89 1010.4
20260904105241 82 153 2.0 4.0 0.00 0.00 0.00 89 1010.3
20260904104742 82 155 3.0 4.0 0.00 0.00 0.00 89 1010.2
20260904104241 82 154 2.0 4.0 0.00 0.00 0.00 89 1010.2
20260904103743 82 108 2.0 4.0 0.00 0.00 0.00 89 1010.2
20260904103241 82 158 2.0 4.0 0.00 0.00 0.00 89 1010.2
20260904102241 82 149 2.0 3.0 0.00 0.00 0.00 89 1010.2
20260904101743 81 158 2.0 4.0 0.00 0.00 0.00 89 1010.1
20260904101241 81 152 2.0 4.0 0.00 0.00 0.00 89 1010.2
20260904100744 81 126 2.0 3.0 0.00 0.00 0.00 89 1010.1
20260904100231 81 169 2.0 4.0 0.00 0.00 0.00 89 1010.1
20260904095730 81 147 2.0 4.0 0.00 0.00 0.00 89 1010.1
20260904095228 81 164 2.0 4.0 0.00 0.00 0.00 89 1010.1
20260904094730 81 160 2.0 4.0 0.00 0.00 0.00 89 1010.1
20260904094229 81 153 2.0 4.0 0.00 0.00 0.00 89 1010.0
20260904093730 82 156 2.0 4.0 0.00 0.00 0.00 89 1010.1
20260904093228 82 147 2.0 5.0 0.00 0.00 0.00 89 1010.1
20260904092731 82 141 2.0 5.0 0.00 0.00 0.00 89 1010.0
20260904092229 82 141 2.0 4.0 0.00 0.00 0.00 88 1010.1
20260904091730 82 162 2.0 4.0 0.00 0.00 0.00 88 1010.1
20260904091228 82 168 2.0 4.0 0.00 0.00 0.00 88 1010.1
20260904090727 82 160 2.0 3.0 0.00 0.00 0.00 88 1010.1
20260904090225 82 186 2.0 3.0 0.00 0.00 0.00 88 1010.1
20260904085729 82 133 2.0 3.0 0.00 0.00 0.00 88 1010.1
20260904085227 82 160 2.0 4.0 0.00 0.00 0.00 88 1010.1
20260904084727 82 183 2.0 4.0 0.00 0.00 0.00 88 1010.1
20260904084213 82 195 2.0 4.0 0.00 0.00 0.00 88 1010.1
20260904083714 82 220 2.0 4.0 0.00 0.00 0.00 88 1010.1
20260904083212 82 196 2.0 4.0 0.00 0.00 0.00 88 1010.2
20260904082715 82 182 2.0 4.0 0.00 0.00 0.00 88 1010.1
20260904082212 82 169 2.0 3.0 0.00 0.00 0.00 88 1010.1
20260904081213 82 172 1.0 3.0 0.00 0.00 0.00 88 1010.1
20260904080715 82 154 1.0 2.0 0.00 0.00 0.00 87 1010.2
20260904080216 82 160 1.0 2.0 0.00 0.00 0.00 87 1010.3
20260904075714 82 177 1.0 2.0 0.00 0.00 0.00 87 1010.3
20260904075214 82 177 1.0 2.0 0.00 0.00 0.00 87 1010.4
20260904074715 82 158 1.0 3.0 0.00 0.00 0.00 87 1010.4
20260904074213 82 178 1.0 3.0 0.00 0.00 0.00 87 1010.5
20260904073700 82 149 1.0 3.0 0.00 0.00 0.00 87 1010.5
20260904072700 82 156 1.0 2.0 0.00 0.00 0.00 87 1010.6
20260904071645 83 168 0.0 1.0 0.00 0.00 0.00 86 1010.6
20260904071148 83 0 0.0 1.0 0.00 0.00 0.00 86 1010.7
20260904070631 83 0 0.0 2.0 0.00 0.00 0.00 86 1010.8
20260904070133 83 165 0.0 2.0 0.00 0.00 0.00 86 1010.8
20260904065139 83 145 1.0 2.0 0.00 0.00 0.00 86 1010.8
20260904064632 83 144 0.0 2.0 0.00 0.00 0.00 86 1010.8
20260904064131 83 103 0.0 2.0 0.00 0.00 0.00 86 1010.8
20260904063132 83 0 0.0 2.0 0.00 0.00 0.00 85 1010.7
20260904062631 83 155 1.0 2.0 0.00 0.00 0.00 85 1010.8
20260904062115 83 170 1.0 2.0 0.00 0.00 0.00 85 1010.8
20260904061615 83 177 1.0 2.0 0.00 0.00 0.00 85 1010.8
20260904061114 83 134 1.0 3.0 0.00 0.00 0.00 85 1010.8
20260904060116 84 189 1.0 3.0 0.00 0.00 0.00 84 1010.8
20260904055614 84 137 1.0 2.0 0.00 0.00 0.00 84 1010.9
20260904055115 84 156 1.0 2.0 0.00 0.00 0.00 84 1011.0
20260904054615 84 208 1.0 2.0 0.00 0.00 0.00 84 1011.0
20260904054115 84 183 1.0 2.0 0.00 0.00 0.00 84 1011.0
20260904053615 84 152 1.0 2.0 0.00 0.00 0.00 83 1011.0
20260904053115 84 116 1.0 2.0 0.00 0.00 0.00 83 1011.0
20260904052615 84 148 2.0 3.0 0.00 0.00 0.00 83 1010.9
20260904052102 84 127 1.0 3.0 0.00 0.00 0.00 83 1010.8
20260904051600 85 188 1.0 2.0 0.00 0.00 0.00 83 1010.7
20260904050557 85 0 2.0 3.0 0.00 0.00 0.00 82 1010.8
20260904050032 85 177 2.0 3.0 0.00 0.00 0.00 82 1010.9
20260904045531 85 153 2.0 3.0 0.00 0.00 0.00 82 1010.8
20260904045033 85 177 2.0 3.0 0.00 0.00 0.00 82 1010.7
20260904044533 85 131 2.0 3.0 0.00 0.00 0.00 82 1010.8
20260904044033 85 155 2.0 4.0 0.00 0.00 0.00 82 1010.8
20260904043533 85 162 2.0 4.0 0.00 0.00 0.00 81 1010.8
20260904043034 85 128 2.0 4.0 0.00 0.00 0.00 81 1010.7
20260904042532 85 149 2.0 4.0 0.00 0.00 0.00 81 1010.7
20260904042031 85 146 2.0 3.0 0.00 0.00 0.00 81 1010.7
20260904041531 85 164 2.0 4.0 0.00 0.00 0.00 81 1010.7
20260904041030 85 136 2.0 6.0 0.00 0.00 0.00 81 1010.6
20260904040530 85 126 3.0 6.0 0.00 0.00 0.00 81 1010.6
20260904040031 85 153 3.0 5.0 0.00 0.00 0.00 81 1010.6
20260904035020 86 133 2.0 4.0 0.00 0.00 0.00 81 1010.8
20260904034503 86 111 2.0 5.0 0.00 0.00 0.00 81 1010.8
20260904033501 86 120 3.0 5.0 0.00 0.00 0.00 81 1010.8
20260904032459 86 126 3.0 5.0 0.00 0.00 0.00 80 1010.6
20260904031959 86 95 3.0 5.0 0.00 0.00 0.00 78 1010.7
20260904031459 86 175 3.0 6.0 0.00 0.00 0.00 80 1010.6
20260904030947 86 144 3.0 7.0 0.00 0.00 0.00 80 1010.6
20260904030445 86 175 2.0 7.0 0.00 0.00 0.00 80 1010.6
20260904025944 86 155 3.0 7.0 0.00 0.00 0.00 80 1010.5
20260904025441 86 91 3.0 8.0 0.00 0.00 0.00 80 1010.5
20260904024942 86 133 3.0 10.0 0.00 0.00 0.00 79 1010.3
20260904023939 87 147 3.0 10.0 0.00 0.00 0.00 79 1010.2
20260904023438 87 121 3.0 13.0 0.00 0.00 0.00 79 1010.2
20260904022939 87 120 3.0 13.0 0.00 0.00 0.00 79 1010.2
20260904022439 87 140 3.0 8.0 0.00 0.00 0.00 78 1010.1
20260904021939 87 128 4.0 8.0 0.00 0.00 0.00 78 1009.9
20260904021439 87 132 4.0 9.0 0.00 0.00 0.00 79 1009.7
20260904020439 87 146 4.0 9.0 0.00 0.00 0.00 79 1009.6
20260904015438 87 230 4.0 11.0 0.00 0.00 0.00 78 1009.4
20260904014938 87 124 4.0 11.0 0.00 0.00 0.00 78 1009.4
20260904014437 87 128 4.0 9.0 0.00 0.00 0.00 78 1009.3
20260904013431 87 67 4.0 11.0 0.00 0.00 0.00 78 1009.3
20260904012933 87 134 3.0 9.0 0.00 0.00 0.00 77 1009.3
20260904012433 87 149 3.0 11.0 0.00 0.00 0.00 77 1009.4
20260904011933 87 149 4.0 11.0 0.00 0.00 0.00 77 1009.4
20260904010932 87 351 4.0 12.0 0.00 0.00 0.00 77 1009.2
20260904010432 87 117 6.0 11.0 0.00 0.00 0.00 77 1009.3
20260904005933 87 90 6.0 11.0 0.00 0.00 0.00 76 1009.1
20260904004933 88 124 5.0 10.0 0.00 0.00 0.00 76 1009.2
20260904003430 88 91 6.0 12.0 0.00 0.00 0.00 76 1008.9
20260904002930 89 126 5.0 11.0 0.00 0.00 0.00 75 1009.0
20260904002425 89 137 5.0 11.0 0.00 0.00 0.00 74 1009.0
20260904001426 89 189 5.0 13.0 0.00 0.00 0.00 74 1009.1
20260904000926 89 114 6.0 15.0 0.00 0.00 0.00 74 1009.0
20260904000426 89 155 6.0 15.0 0.00 0.00 0.00 74 1009.0
20260903235926 89 124 6.0 12.0 0.00 0.00 0.00 74 1008.8
20260903234926 90 123 6.0 12.0 0.00 0.00 0.00 73 1008.6
20260903234426 90 108 5.0 13.0 0.00 0.00 0.00 72 1008.8
20260903233927 90 140 5.0 13.0 0.00 0.00 0.00 71 1008.8
20260903233426 90 158 5.0 12.0 0.00 0.00 0.00 71 1008.7
20260903232926 90 133 5.0 12.0 0.00 0.00 0.00 70 1008.6
20260903232423 90 130 6.0 15.0 0.00 0.00 0.00 70 1008.6
20260903231923 91 88 6.0 15.0 0.00 0.00 0.00 69 1008.5
20260903231421 91 115 5.0 12.0 0.00 0.00 0.00 68 1008.5
20260903230920 92 114 5.0 12.0 0.00 0.00 0.00 68 1008.3
20260903225922 92 108 5.0 12.0 0.00 0.00 0.00 66 1008.4
20260903225423 92 106 5.0 12.0 0.00 0.00 0.00 65 1008.3
20260903224422 92 101 6.0 16.0 0.00 0.00 0.00 66 1008.2
20260903223923 93 110 5.0 13.0 0.00 0.00 0.00 66 1008.1
20260903223422 93 146 5.0 13.0 0.00 0.00 0.00 64 1008.1
20260903222922 93 84 6.0 13.0 0.00 0.00 0.00 65 1008.0
20260903222422 93 86 6.0 13.0 0.00 0.00 0.00 64 1008.1
20260903221423 94 128 5.0 12.0 0.00 0.00 0.00 63 1008.1
20260903220918 94 142 5.0 12.0 0.00 0.00 0.00 63 1007.9
20260903220419 95 126 6.0 12.0 0.00 0.00 0.00 62 1008.1
20260903215915 95 88 6.0 13.0 0.00 0.00 0.00 62 1007.9
20260903215413 95 155 5.0 13.0 0.00 0.00 0.00 61 1008.0
20260903214913 95 127 5.0 11.0 0.00 0.00 0.00 60 1007.9
20260903214413 96 132 6.0 12.0 0.00 0.00 0.00 60 1007.8
20260903213913 96 108 5.0 12.0 0.00 0.00 0.00 59 1007.9
20260903212413 97 113 5.0 13.0 0.00 0.00 0.00 60 1007.8
20260903211913 97 139 4.0 12.0 0.00 0.00 0.00 57 1007.7
20260903211414 96 102 5.0 12.0 0.00 0.00 0.00 59 1007.9
20260903210414 97 137 5.0 12.0 0.00 0.00 0.00 58 1007.9
20260903205913 97 106 5.0 10.0 0.00 0.00 0.00 59 1007.8
20260903205413 98 105 5.0 12.0 0.00 0.00 0.00 57 1007.9
20260903204911 98 135 4.0 12.0 0.00 0.00 0.00 58 1007.9
20260903204408 98 128 4.0 9.0 0.00 0.00 0.00 57 1008.0
20260903203408 98 113 5.0 13.0 0.00 0.00 0.00 57 1008.1
20260903202907 98 121 5.0 13.0 0.00 0.00 0.00 57 1008.1
20260903202408 99 146 4.0 9.0 0.00 0.00 0.00 55 1008.2
20260903201908 99 132 4.0 8.0 0.00 0.00 0.00 56 1008.2
20260903201409 99 119 4.0 9.0 0.00 0.00 0.00 55 1008.0
20260903200908 99 99 4.0 9.0 0.00 0.00 0.00 56 1008.1
20260903200408 99 119 4.0 11.0 0.00 0.00 0.00 55 1008.3
20260903195909 100 132 4.0 11.0 0.00 0.00 0.00 54 1008.3
20260903195408 100 172 4.0 9.0 0.00 0.00 0.00 51 1008.3
20260903194908 100 174 4.0 8.0 0.00 0.00 0.00 52 1008.3
20260903194409 99 106 4.0 8.0 0.00 0.00 0.00 52 1008.4
20260903193908 100 112 4.0 10.0 0.00 0.00 0.00 52 1008.6
20260903193406 100 137 4.0 10.0 0.00 0.00 0.00 52 1008.6
20260903192906 100 101 4.0 11.0 0.00 0.00 0.00 50 1008.6
20260903191903 101 118 3.0 8.0 0.00 0.00 0.00 49 1008.7
20260903191402 101 95 3.0 8.0 0.00 0.00 0.00 49 1008.8
20260903190902 101 122 3.0 8.0 0.00 0.00 0.00 48 1008.8
20260903190401 100 190 3.0 8.0 0.00 0.00 0.00 46 1008.8
20260903185900 101 74 3.0 8.0 0.00 0.00 0.00 48 1008.9
20260903185400 101 121 2.0 7.0 0.00 0.00 0.00 45 1008.9
20260903184400 101 125 3.0 9.0 0.00 0.00 0.00 45 1009.1
20260903183900 100 24 3.0 10.0 0.00 0.00 0.00 46 1009.1
20260903182900 100 162 4.0 11.0 0.00 0.00 0.00 46 1009.2
20260903182400 99 181 4.0 11.0 0.00 0.00 0.00 45 1009.4
20260903181358 99 212 4.0 13.0 0.00 0.00 0.00 46 1009.5
20260903180857 100 159 3.0 9.0 0.00 0.00 0.00 47 1009.6
20260903180357 99 153 3.0 10.0 0.00 0.00 0.00 48 1009.7
20260903175859 99 171 3.0 10.0 0.00 0.00 0.00 49 1009.8
20260903174858 98 251 4.0 9.0 0.00 0.00 0.00 50 1010.0
20260903174358 98 209 3.0 8.0 0.00 0.00 0.00 51 1010.0
20260903173858 98 101 3.0 11.0 0.00 0.00 0.00 50 1010.1
20260903173358 98 114 4.0 11.0 0.00 0.00 0.00 51 1010.2
20260903172358 97 176 4.0 12.0 0.00 0.00 0.00 51 1010.4
20260903171858 96 191 6.0 12.0 0.00 0.00 0.00 53 1010.5
20260903171357 96 144 6.0 12.0 0.00 0.00 0.00 53 1010.5
20260903170858 96 206 5.0 11.0 0.00 0.00 0.00 53 1010.6
20260903170411 96 293 5.0 11.0 0.00 0.00 0.00 53 1010.6
20260903165859 96 189 5.0 13.0 0.00 0.00 0.00 54 1010.7
20260903164855 95 185 6.0 14.0 0.00 0.00 0.00 55 1010.8
20260903164356 95 180 6.0 14.0 0.00 0.00 0.00 56 1010.8
20260903163856 95 163 5.0 12.0 0.00 0.00 0.00 56 1010.9
20260903163355 95 196 4.0 10.0 0.00 0.00 0.00 56 1010.9
20260903162856 95 186 4.0 12.0 0.00 0.00 0.00 56 1010.9
20260903162355 94 141 6.0 12.0 0.00 0.00 0.00 57 1010.9
20260903161858 93 276 6.0 12.0 0.00 0.00 0.00 58 1011.1
20260903161356 94 180 5.0 12.0 0.00 0.00 0.00 58 1011.1
20260903160856 94 185 5.0 13.0 0.00 0.00 0.00 57 1011.0
20260903160356 93 183 5.0 13.0 0.00 0.00 0.00 59 1011.0
20260903155856 93 178 4.0 11.0 0.00 0.00 0.00 58 1011.0
20260903155356 92 182 4.0 11.0 0.00 0.00 0.00 60 1011.0
20260903154856 92 173 5.0 12.0 0.00 0.00 0.00 61 1011.1
20260903154357 91 129 6.0 13.0 0.00 0.00 0.00 63 1011.1
20260903153857 91 163 7.0 16.0 0.00 0.00 0.00 63 1011.1
20260903153354 90 167 6.0 16.0 0.00 0.00 0.00 64 1011.2
20260903152354 90 150 6.0 16.0 0.00 0.00 0.00 65 1011.2
20260903151854 90 180 6.0 16.0 0.00 0.00 0.00 67 1011.3
20260903151354 89 190 7.0 14.0 0.00 0.00 0.00 66 1011.3
20260903150851 89 194 6.0 14.0 0.00 0.00 0.00 69 1011.3
20260903150352 90 192 4.0 10.0 0.00 0.00 0.00 67 1011.3
20260903145851 89 172 4.0 11.0 0.00 0.00 0.00 69 1011.4
20260903145351 89 153 4.0 11.0 0.00 0.00 0.00 69 1011.4
20260903144852 89 125 5.0 12.0 0.00 0.00 0.00 71 1011.5
20260903144351 88 121 6.0 15.0 0.00 0.00 0.00 73 1011.5
20260903143852 88 42 6.0 15.0 0.00 0.00 0.00 73 1011.5
20260903143351 87 139 5.0 12.0 0.00 0.00 0.00 75 1011.6
20260903142851 87 144 5.0 13.0 0.00 0.00 0.00 75 1011.6
20260903142349 87 134 6.0 13.0 0.00 0.00 0.00 78 1011.6
20260903141346 87 174 6.0 15.0 0.00 0.00 0.00 79 1011.5
20260903140346 86 184 3.0 9.0 0.00 0.00 0.00 80 1011.6
20260903135845 86 153 4.0 9.0 0.00 0.00 0.00 81 1011.6
20260903135346 86 181 3.0 9.0 0.00 0.00 0.00 82 1011.6
20260903134846 86 175 3.0 8.0 0.00 0.00 0.00 82 1011.7
20260903133843 85 172 3.0 6.0 0.00 0.00 0.00 83 1011.8
20260903132843 85 129 3.0 5.0 0.00 0.00 0.00 85 1011.7
20260903132347 84 175 3.0 5.0 0.00 0.00 0.00 85 1011.7
20260903131842 84 176 3.0 6.0 0.00 0.00 0.00 86 1011.6
20260903130843 83 167 3.0 4.0 0.00 0.00 0.00 87 1011.5
20260903130344 83 162 3.0 4.0 0.00 0.00 0.00 88 1011.5
20260903125842 82 165 3.0 4.0 0.00 0.00 0.00 89 1011.5
20260903125331 82 143 3.0 4.0 0.00 0.00 0.00 89 1011.5
20260903124829 82 150 3.0 4.0 0.00 0.00 0.00 90 1011.4
20260903124331 81 150 3.0 4.0 0.00 0.00 0.00 90 1011.3
20260903123829 81 158 3.0 4.0 0.00 0.00 0.00 90 1011.3
20260903123331 81 155 2.0 3.0 0.00 0.00 0.00 90 1011.3
20260903122829 81 165 2.0 4.0 0.00 0.00 0.00 90 1011.3
20260903121829 81 175 2.0 4.0 0.00 0.00 0.00 90 1011.2
20260903120829 81 158 3.0 4.0 0.00 0.00 0.00 90 1011.2
20260903120333 81 172 2.0 4.0 0.00 0.00 0.00 90 1011.2
20260903115829 81 173 3.0 4.0 0.00 0.00 0.00 90 1011.2
20260903114305 81 172 3.0 4.0 0.00 0.00 0.00 90 1011.1
20260903113801 81 135 3.0 4.0 0.00 0.00 0.00 90 1011.1
20260903113305 81 177 3.0 4.0 0.00 0.00 0.00 90 1011.1
20260903112801 81 166 2.0 3.0 0.00 0.00 0.00 90 1011.1